Погода в Аккудуке

Погода в Аккудуке : погода сейчас, прогноз погоды и архив. Всё, что Вы хотите узнать о погоде в Аккудуке!

Хотите узнать прогноз погоды в Аккудуке? Тогда Вам сюда: Погода в Аккудуке

Поиск расширенной информации на нашем сайте:

Полезная информация: Кондиционеры Panasonic inverter

Другие новости

Новости СМИ2

Главная страница сайта

Новости сайта

02.10.2013

Напоминаем, что на нашем новом сайте вы можете получить высокодетализированные прогнозы погоды по пунктам России, СНГ и мира (включающие важные для авиации метеовеличины, такие как направление и скорость ветра, видимость, явления погоды, количество и форма облачности, нижняя и верхняя граница облачности), а также ознакомиться с разнообразными материалами по авиационной метеорологии и подборкой полезных ссылок на эту тему.

Сайт Метеоцентр.Азия посвящён разработке технологий оптимизации авиаметеорологического обслуживания, включая проектирование и перспективное создание нескольких автоматизированных авиаметеорологических систем:
- система выпуска высокодетальных прогностических карт явлений погоды для нижнего воздушного пространства по России и ближнему зарубежью;
- система верификации прогнозов TAF (выпускаемых синоптиками официальных АМСГ РФ и ближнего зарубежья) и AUTOTAF (выпускаемых сайтом Метеоцентр.Азия) - выявление ошибок, онлайн-сопоставление с фактической погодой METAR, автоматическое внесение коррективов в прогнозы при резком отклонении фактической погоды от прогноза, подсчёт оправдываемости прогнозов по элементам и в целом;
- система обработки, анализа и отображения авиаметеорологической информации для применения провайдерами метеорологической информации.

Рекомендуем: доска бесплатных объявлений

Погода в Аккудуке - сегодня

Время (UTC), дата Ветер
(°,м/с) 
Видим.   Явления Облачность Т
(°С)
Тd
(°С)
f(%) Тe
(°С)
Pmin
(гПа)
dP
(гПа)
Po
(мм)
O2
(г/м3)
Тmin Tmax R s Состояние
почвы
21 17.01.17 140 (ЮВ) 4000 м  дымка  10/10 300 м 
[St]
-4.6 -5.3 95 -6  1031.1  0.4  766  314           
00 18.01.17 160 (Ю) 4000 м  дымка  10/10 300 м 
[St]
-5.4 -6.1 95 -8  1031.7  0.5  766  316           
03 18.01.17 020 (С) 10 км    10/10 600 м 
[St]
-4.4 -5 96 -4  1030.5  -1.1  765  314           
06 18.01.17 080 (В) 10 км    10/10 600 м 
[St]
-4 -5.2 91 -4  1031.6  1.1  766  314  -5.4         
09 18.01.17 080 (В) 20000 м    10/10 600 м 
[Sc]
-3.4 -5.7 84 -3  1030.2  -1.4  765  313           
12 18.01.17 080 (В) 20000 м    3/3 600 м 
[Sc]
-1.8 -7.8 64 -4  1029.5  -0.5  765  311           
15 18.01.17 030 (СВ) 20000 м    1/1 1000 м 
[Sc]
-5 -6.5 89 -5  1030.2  0.5  765  315    -1.5       
18 18.01.17 140 (ЮВ) 20000 м    3/3 1000 м 
[Sc]
-4.3 -5.7 90 -4  1030.7  0.5  765  314    -1.5       
21 18.01.17 160 (Ю) 20000 м    3/3 600 м 
[Sc]
-5 -6.5 89 -7  1030.9  0.2  765  315           
00 19.01.17 170 (Ю) 20000 м    4/4 600 м 
[Sc]
-5.4 -6.5 92 -7  1031.3  0.4  766  316           
03 19.01.17 070 (В) 20000 м    10/10 600 м 
[St]
-5.8 -6.6 94 -7  1029.3  -2.1  764  315           
06 19.01.17 060 (СВ) 10 км    10/10 600 м 
[St]
-5.5 -6.5 93 -8  1030.1  0.9  765  315  -5.9         
09 19.01.17 060 (СВ) 20000 м    10/10 600 м 
[Sc]
-4 -6.5 83 -6  1028.9  -1  764  313           
12 19.01.17 020 (С) 20000 м    10/10 600 м 
[Sc]
-3.4 -6.2 81 -6  1028.7  -0.3  764  312           
15 19.01.17 040 (СВ) 4000 м  снег  10/10 300 м 
[Ns]
-3.8 -4.8 93 -6  1029.1  0.5  764  313    -3.4  0.0     
18 19.01.17 020 (С) 4000 м  слаб. снег  10/10 300 м 
[Ns]
-3.8 -4.6 94 -6  1029.3  764  313    -3.4  0.0     
21 19.01.17 020 (С) 20000 м  {снег}  10/10 600 м 
[Ns]
-4.2 -4.9 95 -5  1029.5  0.2  764  313           
00 20.01.17 040 (СВ) 20000 м  {снег}  10/0 
[St]
-4.4 -5.1 95 -6  1029.6  0.1  764  314           
03 20.01.17 010 (С) 20000 м    10/10 600 м 
[St]
-5.2 -6.7 89 -8  1029  -0.6  764  315      равномерный
сухой снег
100% 
06 20.01.17 360 (С) 20000 м    9/9 1000 м 
[Sc]
-5 -7.3 84 -6  1030.6  1.6  765  315  -5.3       
09 20.01.17 330 (СЗ) 20000 м    3/3 600 м 
[Sc diur, vesp]
-3.4 -7.8 72 -6  1029.7  -0.7  765  313           
12 20.01.17 340 (С) 20000 м    1/0 верхняя 
[Ci sp]
-1.5 -6.7 68 -2  1029.1  -0.6  764  310           
15 20.01.17 тихо ()   20000 м    3/0 верхняя 
[Ci sp]
-10.2 -11.4 91 -10  1028.7  -0.8  764  321    -1.5       
18 20.01.17 210 (ЮЗ) 20000 м    ясно 
-12.9 -14.1 91 -15  1028.7  -0.1  764  324    -1.5       
21 20.01.17 200 (Ю) 20000 м    ясно 
-13.6 -14.9 90 -16  1028.5  -0.2  763  325           
Время (UTC), дата Ветер
(°,м/с) 
Видим.   Явления Облачность Т
(°С)
Тd
(°С)
f(%) Тe
(°С)
Pmin
(гПа)
dP
(гПа)
Po
(мм)
O2
(г/м3)
Тmin Tmax R s Состояние
почвы

Для получения пояснительной информации подведите курсор к названию столбца.

ПОГОДА в Аккудуке - архив

Всё, что Вы хотите узнать о погоде в Аккудуке - удобно и подробно!

Выберите нужную дату (начиная с 1 января 2015* года) и нажмите кнопку "Найти".
Будут отображены архивные сводки погоды по пункту Аккудук, начиная с указанной даты.


Отображать данные в формате CSV (для использования в таблицах Excel)


Внимание! Наш архив погоды предназначен исключительно для личного некоммерческого использования в познавательных целях. Если Вам необходимы официальные справки о состоянии погоды (для производственных, юридических, коммерческих и т.п. целей), обращайтесь в органы Росгидромета.

*Примечание: данная дата относится к архиву по метеостанциям СССР (Россия, СНГ, Балтия).
Архив по метеостанциям Зарубежной Европы и Азии (кроме Китая) хранится 10 дней, по другим регионам земного шара (Китай, Африка, Америка, Австралия, Океания) - 1 день.

Аккудук - район местоположения метеостанции


Название, широта, долгота, высота метеостанции:
Аккудук 42.1°ш. 54.1°д. 78 м над ур. моря [Казахстан]

Дополнительная информация

В oтличие oт бoльшинства пoгoдных сайтoв мы публикуем пoдрoбную метеoинфoрмацию в детальнoм прoфессиoнальнoм фoрмате.

Характеристики температуры и влажнoсти вoздуха измеряются на высoте 2 м в тени вдали oт зданий и деревьев.
Скoрoсть ветра измеряется на высoте 10 м (на урoвне рoста челoвека скoрoсть ветра ниже в 1.5-2 раза). Если метеoстанция нахoдится в гoрoде или в лесу, тo скoрoсть ветра занижена на 2-4 м/с пo сравнению с oткрытым местoм. Скoрoсть ветра над акватoриями крупных рек и oзёр, а также на вершинах хoлмoв на 2-5 м/с выше, чем в oбычных услoвиях.
Атмoсфернoе давление в разных тoчках местнoсти мoжет значительнo oтличаться oт давления на метеoстанции, в зависимoсти oт услoвий рельефа (при пoдъёме на 10 м давление пoнижается примернo на 1 мм рт.ст.).